sat.trackr.live / text

‹ back to catalog

ICEYE-X7

NORAD 46496 · 2020-068L

PAYLOAD ACTIVE UNKNOWN

§ Identity

Operator
Country
FIN
Launch date
2020-09-28
Launch site
PLMSC
Launch vehicle
Mass (kg)
RCS (m²)

External: N2YO · Heavens-Above · Gunter

§ Orbital elements

Epoch: 2026-09-14T22:16:34.809888Z

Period
93.92 min
Inclination
97.7596°
Eccentricity
0.0007950
Mean motion
15.33189748 rev/d
Perigee alt
460.9 km
Apogee alt
471.7 km
Semi-major
6,844.4 km
B*
3.2733e-4
RAAN
228.6935°
Arg perigee
24.6340°
Mean anomaly
335.5279°
Rev number
32,853

§ Raw data

ICEYE-X71 46496U 20068L   26257.92818067  .00010424  00000+0  32733-3 0  99992 46496  97.7596 228.6935 0007950  24.6340 335.5279 15.33189748328533

JSON: /api/v1/satellites/46496 · /tle

For live sub-satellite position, see the globe view (requires WebGL).

§ Visibility from observer

Set your observer location to see the next 7 days of passes ≥ 10°. The values pass through the URL so the page stays shareable.

No JS? Fill the form by hand. The geolocation button needs JavaScript.

§ Radio — SatNOGS DB

ModeDescriptionDownlinkUplink
BPSK S-band telemetry 2.264 GHz

1 transmitter · refreshed weekly from db.satnogs.org